Wind_Speed
17 19 19 14 9 6 8 8 10 9 9 9 7 2 10 11 12 15 16 13 9 7 9 10 11 12 13 13 17 26 39 48 46 48 51 57 62 61 57 56 58 58 55 39 46 54 55 55 56
12 15 18 19 14 9 6 9 9 9 8 5 6 6 7 9 15 16 14 15 11 11 13 14 13 10 10 14 17 19 24 32 43 50 55 56 56 58 59 58 59 63 63 63 61 56 51 51 52
12 14 17 18 17 12 10 11 9 7 4 3 3 5 5 3 8 11 12 13 13 14 16 15 16 13 13 12 14 16 16 21 28 35 41 44 52 55 55 56 56 56 58 58 61 61 57 58 52
13 13 13 14 15 15 12 10 8 9 4 1 1 4 3 7 4 5 8 11 12 16 19 20 17 18 16 16 15 13 13 15 16 18 21 27 28 32 38 44 48 47 48 53 54 53 52 56 58
14 15 13 12 12 13 13 12 6 7 8 5 2 4 3 5 6 6 8 5 8 10 11 15 14 15 18 20 16 15 15 16 14 14 15 15 15 17 24 29 35 38 38 39 40 40 43 45 48
20 19 18 15 12 11 12 13 10 8 9 9 8 5 5 5 5 4 5 7 7 7 7 10 9 9 15 16 15 14 15 15 15 14 14 15 13 12 14 16 22 26 31 34 35 36 35 35 39
22 21 21 18 15 13 11 11 12 10 10 14 14 12 9 7 7 7 6 7 8 8 7 7 8 8 6 6 8 7 5 6 10 10 11 15 13 9 10 14 15 14 25 27 21 23 27 31 36
28 26 24 21 19 17 16 11 11 12 13 10 18 18 16 14 12 12 11 11 11 12 11 11 10 11 10 10 7 5 5 4 5 4 3 6 8 11 10 15 15 16 22 33 25 22 21 33 30
30 31 29 27 24 22 20 17 13 12 13 15 16 16 19 19 17 16 15 14 13 15 15 15 15 13 12 12 10 10 11 10 10 9 10 12 10 14 17 15 19 17 18 23 29 33 39 22 33
28 30 32 31 31 29 26 21 21 16 16 16 18 17 18 20 22 21 19 17 16 17 17 17 18 16 15 13 14 15 15 16 16 16 16 16 19 20 21 23 22 21 20 22 23 19 47 39 32
33 28 29 33 35 33 31 29 25 24 15 21 16 21 17 20 20 23 23 20 19 19 20 20 20 21 20 19 20 21 22 22 21 22 24 24 24 26 26 28 28 27 26 28 28 24 22 27 22
32 30 29 28 33 35 36 32 30 32 19 25 20 22 23 21 21 21 23 23 22 21 21 21 24 25 27 25 25 27 29 29 30 29 30 30 32 32 32 32 32 30 31 30 29 29 30 31 30
26 27 28 27 29 28 34 37 35 41 28 27 27 26 25 26 23 24 21 23 24 23 23 22 23 26 29 29 31 31 30 31 33 35 36 38 35 37 36 39 39 37 35 35 34 37 37 36 40
26 25 25 27 26 26 28 31 35 44 36 33 32 31 31 30 29 30 26 25 26 29 28 26 27 30 30 30 29 31 31 33 34 34 37 39 39 39 41 39 41 40 40 40 40 42 45 44 48
29 25 26 33 26 22 25 32 35 34 38 42 36 38 38 35 33 34 33 32 32 34 36 33 32 34 36 35 34 34 35 36 36 35 37 38 39 41 43 43 44 44 46 45 45 49 50 51 53
30 28 27 37 30 24 21 24 36 33 27 39 45 42 42 44 38 38 35 36 37 36 37 37 38 38 38 39 39 40 40 42 41 40 41 43 45 45 46 47 48 48 48 48 51 52 55 57 60
32 29 29 34 34 23 20 26 39 38 29 33 40 45 46 41 41 43 43 42 39 42 43 41 42 42 42 43 44 45 46 46 46 46 47 48 48 47 49 51 53 52 53 53 55 57 59 62 67
36 35 32 33 39 28 23 28 33 36 32 37 40 40 41 42 43 41 44 46 40 42 46 47 47 48 48 49 49 50 50 50 50 51 52 52 51 50 52 54 55 55 56 58 61 62 64 67 69
39 35 35 38 43 30 28 27 32 39 38 36 37 39 35 33 39 41 42 45 42 43 47 49 49 51 53 52 51 52 52 54 54 55 54 53 52 54 55 58 60 60 63 65 65 67 69 70 71
45 40 37 37 45 41 35 32 30 39 37 41 38 39 38 33 34 37 40 41 43 42 43 45 47 49 50 52 54 55 55 58 58 55 54 55 56 57 58 62 64 65 67 67 68 70 72 75 79
49 49 48 41 47 42 39 32 28 36 40 39 45 43 42 41 36 34 36 36 37 39 43 45 47 48 49 51 53 56 59 61 58 59 60 60 62 62 62 64 66 68 71 70 71 74 78 82 85
46 56 51 48 47 40 42 25 28 36 40 39 45 49 49 46 45 43 44 46 46 48 49 51 52 52 52 53 56 59 62 63 65 66 64 62 64 65 67 69 71 73 76 76 76 79 83 86 90
57 60 54 51 48 46 43 45 36 40 41 44 48 53 54 57 57 54 52 51 51 52 53 54 55 55 57 58 60 62 65 67 67 67 67 68 70 72 73 74 75 76 80 80 80 81 86 89 94
67 65 65 63 60 50 48 54 31 41 42 46 48 50 51 57 58 59 59 58 55 55 57 58 58 57 58 60 62 64 67 70 74 75 75 75 77 78 79 82 82 81 84 89 90 90 92 94 93
80 75 74 74 69 60 60 49 39 47 49 49 50 52 52 53 57 61 67 66 65 64 64 63 63 63 63 67 69 70 73 78 82 89 90 85 83 82 82 84 87 88 90 89 90 93 94 93 96
82 85 84 85 75 68 66 54 45 48 55 55 58 59 58 59 60 61 64 67 65 65 66 67 69 68 69 71 71 75 78 82 84 84 92 93 93 91 87 87 89 91 91 96 92 92 94 97 101
87 87 86 92 79 82 69 58 52 53 61 62 63 61 63 65 68 70 68 66 74 76 73 75 73 72 73 75 75 78 81 81 85 86 90 92 89 88 87 88 91 91 92 92 91 93 97 100 104
98 98 88 93 101 106 85 70 59 64 62 62 57 63 68 71 73 75 77 81 78 72 79 84 86 84 85 83 84 90 90 86 86 86 88 91 93 92 92 93 96 96 99 97 98 95 97 97 98
109 113 106 97 100 104 103 87 92 67 64 68 76 73 77 76 78 82 86 89 82 90 92 93 91 86 89 92 95 100 99 99 97 95 92 92 95 97 98 99 102 98 97 98 96 99 103 99 100
117 123 125 121 111 118 121 115 92 93 95 96 94 99 99 90 100 101 103 95 93 94 99 101 98 91 90 91 93 99 104 107 109 109 108 102 103 100 98 97 100 97 98 99 98 99 103 105 105
Wind_Direction
12 18 15 5 15 20 331 301 273 270 267 252 197 163 177 158 149 151 155 147 145 160 176 167 175 180 186 196 210 215 219 221 225 226 229 231 233 237 236 231 239 244 247 243 262 256 253 252 251
9 14 15 16 7 358 335 310 309 288 276 276 218 215 171 169 164 149 150 160 168 167 154 162 161 174 172 181 178 199 216 222 226 225 226 231 234 237 240 241 241 242 244 248 251 252 256 258 249
336 354 1 7 7 1 351 323 316 313 306 260 196 170 158 173 144 159 154 149 165 167 156 163 167 169 168 174 179 186 199 210 216 223 231 235 238 240 241 243 245 246 244 244 243 251 250 243 245
319 325 338 347 353 3 352 343 310 314 339 266 118 137 141 143 164 148 150 145 147 152 141 144 149 168 173 168 170 186 196 210 214 220 224 226 231 236 241 244 246 250 249 251 252 252 252 254 253
289 298 308 328 339 342 356 341 315 294 324 303 226 131 161 143 138 152 159 188 170 167 160 159 151 153 167 169 167 172 177 189 195 205 218 225 230 230 234 239 242 246 249 249 250 253 255 256 254
273 278 284 299 304 322 334 342 325 280 277 292 287 254 229 189 179 176 173 181 201 186 189 175 172 168 158 165 177 161 158 166 186 186 194 214 209 217 230 245 246 248 246 248 249 252 254 255 256
263 265 271 275 285 289 295 306 327 310 281 267 271 275 262 243 245 235 228 218 232 234 227 218 199 195 189 179 195 174 167 181 175 183 199 195 203 222 223 240 235 254 241 253 251 255 257 255 259
262 262 262 265 267 260 273 279 293 308 295 279 263 262 261 260 252 254 253 244 241 246 242 233 217 209 206 210 211 229 239 246 224 241 273 234 223 229 235 243 244 249 250 239 244 248 253 254 255
260 261 259 261 261 261 252 262 258 271 282 289 280 268 253 252 258 257 257 255 252 249 240 240 235 235 237 239 228 235 250 257 268 272 282 275 266 274 263 255 272 254 255 250 238 258 245 260 240
275 263 261 261 261 261 260 247 254 246 268 264 273 276 269 254 255 256 256 253 253 252 252 249 241 239 244 254 258 267 272 266 265 278 283 286 285 281 288 286 285 283 278 259 260 272 240 259 251
290 282 271 263 259 257 259 259 252 249 246 266 246 263 259 264 255 260 257 255 251 246 248 248 248 243 246 249 258 267 274 276 274 274 278 279 278 281 281 286 286 284 280 285 285 291 251 259 286
298 297 292 286 270 263 260 260 257 258 236 262 256 249 259 254 265 262 262 261 257 249 243 243 245 248 248 252 260 272 279 276 279 281 282 282 281 282 280 283 284 285 285 288 293 297 288 290 290
308 310 304 297 292 286 270 267 260 263 248 251 259 259 253 258 247 255 252 256 257 251 248 240 244 246 250 260 267 274 277 279 281 283 284 286 282 281 284 282 284 289 290 292 295 295 292 296 295
311 312 317 307 299 294 287 285 268 265 269 257 249 255 259 255 258 256 251 253 255 256 247 244 247 251 254 261 270 274 274 277 276 276 281 283 285 282 279 278 280 283 288 290 295 294 294 296 295
301 307 306 300 302 305 301 299 279 274 265 267 256 251 256 258 255 258 256 255 257 259 259 255 254 259 265 268 271 277 280 279 278 282 285 284 283 283 281 282 282 283 286 290 293 293 295 294 293
298 299 299 297 297 302 304 309 284 274 270 267 265 260 251 257 261 262 263 262 259 259 261 263 261 261 265 270 273 275 276 280 284 285 286 288 288 286 284 281 281 284 287 291 291 292 292 291 291
288 290 294 294 293 292 301 302 293 287 274 267 269 268 263 259 262 264 266 264 265 258 258 259 263 265 267 269 271 274 276 277 278 280 282 284 284 282 282 280 281 284 287 288 289 291 291 290 289
285 282 284 286 285 288 303 304 300 298 290 281 280 278 278 272 269 265 265 266 264 264 261 261 263 264 265 267 270 274 276 277 278 280 282 282 282 281 280 279 281 281 283 285 289 289 287 287 288
283 280 276 277 282 271 278 297 302 294 291 286 287 289 290 281 273 271 268 270 267 265 265 263 262 264 264 266 269 273 275 276 278 279 280 279 280 280 280 280 281 283 285 288 288 287 286 286 288
280 273 275 273 278 281 278 285 284 286 290 293 290 285 281 281 276 272 271 271 272 268 262 261 263 265 265 267 271 274 275 276 277 277 278 277 277 278 278 278 280 282 283 285 286 286 287 287 287
282 279 275 269 270 277 275 286 276 275 279 285 286 285 285 282 279 276 270 268 268 268 267 266 265 265 266 268 271 273 275 275 276 278 279 278 278 277 278 280 280 281 279 280 282 284 286 286 285
288 282 280 275 272 266 278 262 271 273 283 280 281 282 282 281 279 275 275 274 272 270 269 268 267 269 271 272 274 274 274 275 277 279 279 277 276 277 279 281 280 278 278 280 283 284 285 285 286
284 278 280 282 282 280 274 257 263 270 273 276 279 284 286 289 286 284 279 276 276 276 275 274 275 274 274 276 276 276 278 280 279 280 280 278 278 278 279 279 279 281 281 281 283 284 284 285 286
284 286 282 278 281 283 275 267 251 264 266 267 273 271 275 279 282 284 285 282 279 278 278 279 279 281 282 281 278 278 279 281 282 282 281 281 281 282 282 282 281 282 284 284 283 286 286 286 288
282 281 279 276 275 277 273 271 262 252 260 269 274 274 273 276 275 278 281 281 283 283 282 282 283 283 281 281 282 283 285 286 286 286 285 284 284 282 281 282 283 284 285 289 287 288 289 289 291
280 291 281 276 275 275 274 274 259 263 258 260 265 267 272 274 272 274 277 279 281 282 283 285 286 286 284 284 285 286 287 287 288 290 289 289 288 288 289 285 284 285 286 285 287 288 289 288 290
276 283 279 280 275 273 277 275 271 276 271 264 265 269 271 271 271 272 274 274 279 283 285 288 287 285 284 285 288 290 287 288 290 288 289 291 292 291 292 292 289 286 288 289 289 288 289 289 289
279 277 275 275 280 277 285 267 266 277 274 269 267 271 271 269 270 272 273 274 276 285 289 286 289 285 283 285 284 286 287 287 286 286 286 287 288 288 291 291 290 287 286 288 288 289 290 290 290
281 279 282 273 277 280 282 280 287 278 271 270 273 274 270 268 269 273 273 279 273 285 285 289 285 285 282 282 282 284 287 289 288 289 288 287 288 288 288 287 290 291 288 287 289 289 290 291 293
279 282 283 282 281 283 286 286 288 285 284 285 284 282 280 276 279 275 278 280 286 281 278 282 284 284 283 282 284 283 283 286 286 287 286 288 285 286 286 286 286 288 288 288 291 291 290 290 289
Height
10837 10835 10832 10830 10828 10826 10822 10820 10819 10819 10818 10817 10816 10814 10812 10809 10808 10808 10807 10806 10805 10804 10805 10805 10806 10808 10811 10812 10815 10818 10820 10823 10827 10831 10833 10836 10839 10843 10845 10847 10848 10850 10848 10848 10848 10856 10860 10863 10865
10837 10835 10833 10830 10828 10826 10823 10819 10818 10817 10817 10816 10815 10813 10812 10811 10809 10808 10807 10807 10806 10805 10805 10806 10807 10808 10809 10811 10812 10814 10815 10818 10821 10823 10825 10828 10830 10834 10837 10840 10841 10841 10845 10844 10846 10847 10848 10851 10855
10835 10834 10832 10831 10829 10826 10824 10820 10818 10816 10815 10815 10815 10814 10812 10813 10812 10810 10808 10807 10807 10806 10806 10806 10807 10807 10808 10810 10810 10811 10813 10815 10817 10818 10821 10823 10826 10828 10831 10832 10833 10834 10836 10836 10838 10838 10841 10844 10845
10833 10832 10831 10830 10828 10826 10823 10821 10818 10815 10814 10813 10813 10813 10812 10812 10812 10812 10810 10809 10808 10807 10806 10806 10806 10807 10808 10808 10809 10810 10811 10813 10815 10816 10817 10819 10821 10822 10823 10824 10825 10826 10828 10830 10832 10832 10833 10834 10836
10830 10829 10828 10827 10826 10824 10822 10819 10818 10816 10813 10812 10811 10811 10810 10811 10810 10810 10810 10810 10810 10809 10807 10807 10808 10807 10808 10808 10809 10809 10810 10812 10812 10812 10813 10815 10816 10817 10818 10819 10819 10820 10821 10821 10822 10823 10825 10826 10827
10826 10825 10824 10824 10823 10822 10820 10819 10816 10814 10813 10811 10809 10809 10809 10808 10808 10808 10808 10808 10808 10808 10808 10807 10807 10807 10807 10808 10809 10809 10809 10810 10810 10810 10811 10811 10812 10813 10814 10814 10813 10813 10813 10814 10815 10817 10817 10817 10816
10821 10821 10821 10820 10819 10819 10817 10816 10815 10812 10810 10809 10807 10807 10807 10806 10806 10806 10805 10805 10806 10806 10805 10805 10805 10805 10805 10805 10806 10806 10806 10808 10809 10809 10810 10810 10809 10810 10810 10810 10810 10809 10809 10809 10809 10810 10810 10810 10809
10817 10817 10815 10815 10814 10814 10813 10812 10811 10810 10808 10806 10805 10804 10804 10803 10803 10803 10802 10802 10803 10802 10803 10803 10802 10802 10802 10802 10803 10803 10803 10804 10805 10805 10805 10806 10806 10806 10807 10807 10807 10805 10804 10804 10804 10805 10805 10804 10803
10810 10810 10810 10809 10808 10807 10808 10807 10807 10805 10804 10802 10801 10800 10799 10799 10799 10799 10798 10798 10798 10798 10798 10799 10799 10799 10799 10800 10799 10800 10800 10800 10801 10801 10802 10802 10802 10802 10803 10802 10801 10801 10800 10799 10800 10799 10797 10797 10797
10802 10803 10803 10803 10802 10802 10801 10801 10800 10800 10799 10798 10797 10796 10794 10794 10794 10795 10794 10794 10794 10794 10794 10794 10795 10795 10795 10795 10795 10795 10795 10795 10796 10795 10795 10795 10795 10794 10793 10792 10792 10791 10792 10793 10792 10789 10789 10791 10790
10795 10796 10796 10795 10795 10796 10794 10795 10795 10793 10794 10791 10792 10790 10790 10789 10790 10789 10790 10789 10789 10789 10789 10789 10789 10789 10790 10789 10788 10788 10788 10787 10787 10787 10787 10787 10787 10787 10785 10784 10784 10783 10784 10781 10780 10779 10782 10782 10779
10788 10788 10788 10788 10787 10788 10788 10787 10789 10786 10789 10786 10785 10785 10783 10784 10784 10784 10784 10784 10783 10783 10783 10784 10784 10785 10784 10783 10782 10781 10779 10779 10778 10778 10778 10778 10777 10776 10776 10775 10775 10774 10773 10772 10772 10771 10770 10769 10770
10782 10781 10781 10780 10778 10779 10779 10778 10781 10773 10781 10781 10780 10779 10779 10778 10777 10777 10777 10777 10777 10777 10777 10778 10777 10777 10777 10776 10774 10773 10772 10770 10770 10769 10768 10766 10765 10765 10764 10764 10762 10761 10762 10762 10759 10759 10759 10758 10758
10779 10778 10776 10772 10772 10772 10770 10770 10770 10764 10769 10771 10773 10773 10773 10772 10772 10770 10771 10771 10770 10770 10770 10770 10770 10768 10768 10767 10766 10765 10763 10762 10761 10761 10759 10757 10755 10754 10753 10753 10752 10751 10750 10749 10748 10748 10746 10744 10743
10775 10776 10772 10765 10766 10766 10764 10761 10757 10756 10761 10759 10763 10763 10763 10763 10765 10764 10765 10765 10764 10762 10761 10762 10762 10760 10758 10758 10756 10755 10753 10752 10751 10752 10750 10748 10747 10745 10744 10742 10741 10738 10738 10738 10737 10735 10734 10732 10730
10770 10770 10768 10757 10760 10761 10759 10753 10742 10748 10752 10749 10748 10749 10754 10753 10756 10757 10757 10757 10756 10755 10753 10753 10751 10750 10749 10748 10746 10744 10743 10741 10740 10740 10739 10737 10735 10735 10734 10731 10728 10727 10727 10726 10724 10721 10721 10719 10716
10762 10764 10763 10756 10753 10756 10753 10746 10736 10738 10742 10740 10736 10739 10741 10746 10747 10747 10747 10746 10747 10746 10744 10743 10741 10741 10739 10738 10736 10734 10733 10731 10730 10728 10726 10725 10723 10722 10721 10718 10716 10716 10715 10712 10709 10707 10705 10703 10699
10753 10756 10754 10751 10743 10748 10747 10741 10735 10730 10733 10730 10726 10727 10730 10734 10734 10737 10736 10734 10738 10735 10734 10732 10731 10730 10727 10726 10723 10721 10721 10720 10719 10717 10714 10711 10709 10708 10706 10703 10701 10701 10698 10695 10693 10690 10688 10686 10683
10743 10744 10745 10741 10734 10742 10743 10738 10728 10720 10720 10722 10719 10717 10719 10722 10721 10722 10724 10722 10725 10725 10722 10720 10719 10717 10715 10714 10712 10709 10708 10706 10704 10701 10699 10698 10696 10692 10690 10688 10686 10684 10680 10678 10675 10672 10669 10669 10667
10731 10731 10733 10733 10724 10728 10732 10734 10724 10714 10710 10706 10709 10706 10708 10710 10708 10708 10709 10709 10709 10709 10708 10707 10706 10704 10703 10702 10700 10697 10696 10692 10690 10688 10686 10682 10680 10677 10675 10673 10671 10669 10664 10662 10659 10654 10651 10648 10648
10717 10718 10718 10721 10715 10720 10721 10727 10716 10708 10704 10702 10692 10694 10693 10695 10697 10697 10697 10698 10698 10697 10695 10694 10693 10693 10691 10690 10686 10683 10680 10678 10678 10676 10673 10671 10667 10663 10659 10657 10655 10651 10647 10645 10642 10637 10631 10626 10625
10712 10694 10702 10706 10706 10712 10710 10720 10713 10701 10697 10691 10687 10679 10680 10682 10683 10685 10685 10685 10685 10685 10682 10681 10680 10680 10679 10677 10673 10669 10666 10664 10663 10661 10658 10655 10651 10648 10645 10641 10636 10631 10627 10625 10621 10616 10611 10604 10599
10697 10688 10686 10687 10691 10697 10701 10693 10702 10694 10692 10682 10678 10673 10669 10662 10662 10667 10668 10669 10669 10668 10666 10665 10665 10666 10665 10663 10659 10654 10650 10647 10644 10643 10642 10639 10635 10631 10626 10621 10616 10610 10607 10602 10598 10594 10587 10581 10575
10666 10673 10674 10671 10674 10686 10678 10675 10705 10684 10680 10673 10670 10663 10661 10657 10652 10647 10645 10646 10650 10651 10649 10649 10649 10649 10648 10645 10641 10638 10633 10628 10623 10621 10621 10621 10618 10613 10607 10602 10597 10591 10586 10579 10574 10568 10562 10554 10549
10649 10650 10650 10650 10655 10664 10661 10667 10684 10674 10665 10662 10658 10653 10651 10648 10643 10640 10631 10629 10632 10632 10632 10633 10633 10633 10630 10625 10623 10621 10617 10609 10602 10593 10591 10596 10595 10592 10587 10582 10576 10571 10564 10557 10550 10544 10538 10530 10524
10638 10625 10628 10611 10632 10642 10642 10659 10664 10656 10653 10648 10645 10641 10639 10635 10628 10623 10620 10614 10613 10613 10615 10617 10615 10614 10610 10607 10605 10601 10595 10589 10582 10574 10563 10562 10564 10563 10562 10557 10552 10547 10541 10534 10527 10519 10512 10504 10498
10617 10610 10602 10588 10604 10605 10639 10640 10647 10638 10631 10628 10629 10626 10623 10617 10611 10607 10604 10604 10595 10594 10596 10595 10596 10596 10590 10587 10586 10579 10573 10569 10561 10555 10545 10540 10539 10535 10530 10525 10521 10518 10511 10506 10500 10494 10486 10479 10472
10582 10585 10580 10574 10564 10571 10607 10607 10625 10617 10614 10614 10609 10605 10600 10597 10594 10591 10585 10580 10585 10582 10577 10572 10571 10573 10571 10564 10563 10559 10553 10546 10540 10535 10529 10521 10516 10511 10505 10500 10494 10488 10483 10478 10473 10465 10458 10449 10442
10553 10552 10554 10547 10542 10541 10547 10585 10595 10594 10595 10590 10584 10582 10578 10574 10570 10565 10559 10558 10564 10565 10556 10551 10549 10547 10548 10544 10541 10536 10528 10524 10516 10510 10506 10500 10493 10487 10480 10475 10469 10463 10456 10452 10444 10438 10430 10421 10414
10529 10530 10524 10514 10523 10511 10504 10520 10573 10565 10560 10558 10559 10554 10545 10548 10543 10532 10529 10531 10536 10533 10534 10529 10523 10523 10520 10520 10515 10511 10505 10497 10491 10485 10480 10474 10467 10460 10455 10449 10442 10437 10432 10426 10418 10410 10403 10395 10386